Regional Weather Roundup
Issued by NWS

Home | Current Version | Previous Version | Text Only | Print | Product List | Glossary Off
Versions: 1 2 3 4 5 6 7 8 9 10 11 12 13 14 15 16 17 18 19 20 21 22 23 24 25 26 27 28 29 30 31 32 33 34 35 36 37 38 39 40 41 42 43 44 45 46 47 48 49 50

000
ASUS44 KMEG 221700
RWRTN
TENNESSEE HOURLY STATE WEATHER ROUNDUP
NATIONAL WEATHER SERVICE MEMPHIS TN
1100 AM CST WED NOV 22 2017

TNZ002-004-019-021-049-052-054-088>092-221800-
WEST TENNESSEE

CITY           SKY/WX    TMP DP  RH WIND       PRES   REMARKS
MEMPHIS INTL   MOSUNNY   43  24  47 NE10      30.33F
NWS MEMPHIS      N/A     41 N/A N/A MISG        N/A
JACKSON        SUNNY     42  26  53 NE10      30.33F
DYERSBURG      SUNNY     41  24  51 NE14      30.36F
$$

TNZ008-025-027-028-033-062-065-066-221800-
NORTH MIDDLE TENNESSEE

CITY           SKY/WX    TMP DP  RH WIND       PRES   REMARKS
NASHVILLE      MOSUNNY   43  25  49 NE14      30.29F
CLARKSVILLE    SUNNY     40  24  53 NE10      30.33F WCI  33
SMYRNA         SUNNY     42  26  53 N10       30.30F
CROSSVILLE     SUNNY     44  29  55 N9G17     30.19F
$$

TNZ061-075-076-078-094-096-097-221800-
SOUTH MIDDLE TENNESSEE

CITY           SKY/WX    TMP DP  RH WIND       PRES   REMARKS
WINCHESTER       N/A     43  34  70 N13       30.23F
$$

TNZ017-018-042-046-047-221800-
NORTHEAST TENNESSEE

CITY           SKY/WX    TMP DP  RH WIND       PRES   REMARKS
TRI CITIES     MOSUNNY   49  34  56 CALM      30.16F
$$

TNZ012-013-036-069-073-074-221800-
CENTRAL EAST TENNESSEE

CITY           SKY/WX    TMP DP  RH WIND       PRES   REMARKS
KNOXVILLE      NOT AVBL
OAK RIDGE      SUNNY     49  35  58 E6        30.21F
$$

TNZ083-085-099-221800-
SOUTHEAST TENNESSEE

CITY           SKY/WX    TMP DP  RH WIND       PRES   REMARKS
CHATTANOOGA    MOSUNNY   52  32  46 N17G23    30.19F
$$

SKY/WX REPORTED AS FAIR MEANS FEW OR NO CLOUDS BELOW
12 THOUSAND FEET.





USA.gov is the U.S. government's official web portal to all federal, state and local government web resources and services.